Liberia, Costa Rica

12:45 PM CST on February 27, 2017 (GMT -0600)
Daniel Oduber Quiros International

Weather History for MRLB - October, 2012

Change the Weather History Date:

Monday, October 22, 2012

  Actual Average Record
Temperature  
Mean Temperature 80 °F -  
Max Temperature 86 °F 85 °F 91 °F (2000)
Min Temperature 73 °F 72 °F 71 °F (2006)
Cooling Degree Days 14    
Growing Degree Days 30 (Base 50)    
Moisture  
Dew Point 74 °F    
Average Humidity 81    
Maximum Humidity 94    
Minimum Humidity 69    
Precipitation  
Precipitation 0.04 in - - ()
Sea Level Pressure  
Sea Level Pressure 29.79 in    
Wind  
Wind Speed 5 mph ()    
Max Wind Speed 10 mph    
Max Gust Speed -    
Visibility 7.5 miles    
Events Rain , Thunderstorm    
Averages and records for this station are not official NWS values.
T = Trace of Precipitation, MM = Missing Value Source: Averaged Metar Reports

Daily Weather History Graph

Daily Weather History Graph

Search for Another Location

Airport or City:

Trip Planner

Search our weather history database for the weather conditions in past years. The results will help you decide how hot, cold, wet, or windy it might be!

Date:

Astronomy

Oct. 22, 2012 Rise Set
Actual Time 5:31 AM CST 5:21 PM CST
Civil Twilight 5:10 AM CST 5:42 PM CST
Nautical Twilight 4:45 AM CST 6:07 PM CST
Astronomical Twilight 4:20 AM CST 6:32 PM CST
Moon 12:21 PM CST (10/22) No Moon Set
Length of Visible Light 12h 32m
Length of Day
11h 49m
First Quarter, 57% of the Moon is Illuminated
Oct 22
First Quarter
Oct 29
Full
Nov 6
Last Quarter
Nov 13
New
Nov 20
First Quarter

Hourly Weather History & Observations

Time (CST) Temp. Heat Index Dew Point Humidity Pressure Visibility Wind Dir Wind Speed Gust Speed Precip Events Conditions
6:00 AM 74 °F - 72 °F 93% 29.83 in 12 mi NE 3.5 mph - -   Overcast
6:00 AM 73.4 °F - 71.6 °F 94% 29.81 in 6.2 mi NE 3.5 mph - N/A   Mostly Cloudy
7:00 AM 75.2 °F - 73.4 °F 94% 29.84 in 6.2 mi North 3.5 mph - N/A   Drizzle
8:00 AM 77.0 °F - 73.4 °F 89% 29.85 in 6.2 mi NNE 5.8 mph - N/A Rain Light Rain
9:00 AM 80 °F - 74 °F 76% 29.87 in 12 mi WNW 3.5 mph - -   Partly Cloudy
9:00 AM 80.6 °F 85.4 °F 73.4 °F 79% 29.85 in 6.2 mi WNW 3.5 mph - N/A   Mostly Cloudy
10:00 AM 82.4 °F 88.2 °F 73.4 °F 74% 29.85 in 6.2 mi NNW 3.5 mph - N/A   Mostly Cloudy
11:00 AM 82.4 °F 88.2 °F 73.4 °F 74% 29.83 in 6.2 mi NW 6.9 mph - N/A   Mostly Cloudy
12:00 PM 82 °F - 74 °F 69% 29.85 in 12 mi WNW 6.9 mph - -   Overcast
12:00 PM 82.4 °F 88.2 °F 73.4 °F 74% 29.83 in 6.2 mi WNW 6.9 mph - N/A   Mostly Cloudy
1:00 PM 86.0 °F 95.1 °F 75.2 °F 70% 29.76 in 6.2 mi WSW 6.9 mph - N/A   Mostly Cloudy
2:00 PM 86.0 °F 95.1 °F 75.2 °F 70% 29.72 in 6.2 mi West 9.2 mph - N/A   Partly Cloudy
3:00 PM 83 °F - 75 °F 72% 29.73 in 12 mi West 9.2 mph - -   Overcast
3:00 PM 82.4 °F 89.5 °F 75.2 °F 79% 29.71 in 6.2 mi West 9.2 mph - N/A   Mostly Cloudy
3:40 PM 82.4 °F 89.5 °F 75.2 °F 79% 29.72 in 6.2 mi West 10.4 mph - N/A Thunderstorm Light Thunderstorm
4:00 PM 82.4 °F 89.5 °F 75.2 °F 79% 29.72 in 6.2 mi West 9.2 mph - N/A   Mostly Cloudy
5:00 PM 80.6 °F 86.2 °F 75.2 °F 84% 29.74 in 6.2 mi West 6.9 mph - N/A   Mostly Cloudy
6:00 PM - - 79 °F %  in 11 mi West 4.6 mph - -   Overcast
6:00 PM 78.8 °F - 75.2 °F 89% 29.75 in 6.2 mi West 4.6 mph - N/A   Mostly Cloudy
7:00 PM 78.8 °F - 75.2 °F 89% 29.79 in 6.2 mi WSW 4.6 mph - N/A   Mostly Cloudy
8:00 PM 78.8 °F - 75.2 °F 89% 29.82 in 6.2 mi Calm Calm - N/A   Mostly Cloudy